Home   Weather   Egilsstaðir   Past weeks
Flag for Iceland

Past Weather in Egilsstaðir, Iceland — Yesterday and Last 2 Weeks

Now
52 °F

Clear.


Feels Like: 49 °F
Forecast: 60 / 46 °F
Wind: 9 mph from Southwest

Location: Egilsstadir

Current Time: Sep 21, 2019 at 7:18:09 am

Latest Report: Sep 21, 2019 at 6:00 am


Visibility: 10 mi

Pressure: 29.65 "Hg

Humidity: 82%

Dew Point: 46 °F

Location of EgilsstaðirLocation

Past Weather in Egilsstaðir — Graph

°F

Egilsstaðir Temperature Yesterday

Maximum temperature yesterday: 63 °F (at 2:49 pm)
Minimum temperature yesterday: 52 °F (at 10:00 pm)
Average temperature yesterday: 57 °F

High & Low Weather Summary for the Past Weeks

 TemperatureHumidityPressure
High68 °F (Sep 19, 3:00 pm)100% (Sep 9, 6:08 am)30.36 "Hg (Sep 9, 6:08 am)
Low30 °F (Sep 16, 11:00 pm)33% (Sep 13, 4:00 pm)28.88 "Hg (Sep 14, 2:00 pm)
Average47 °F80%29.68 "Hg
* Reported Sep 6 6:00 am — Sep 21 6:00 am, Egilsstaðir. Weather by CustomWeather, © 2019

Note: Actual official high and low records may vary slightly from our data, if they occured in-between our weather recording intervals... More about our weather records

Advertising

Egilsstaðir Weather History for the Previous 24 Hours

Scroll right to see more
 ConditionsComfort  
Time TempWeatherWind HumidityBarometerVisibility
6:00 am
Sat, Sep 21
52 °FClear.9 mph82%29.65 "Hg10 mi
5:00 am52 °FClear.12 mph82%29.65 "Hg10 mi
4:00 am52 °FClear.9 mph82%29.65 "Hg10 mi
3:00 am52 °FClear.6 mph82%29.68 "Hg10 mi
2:00 am50 °FClear.7 mph82%29.68 "Hg10 mi
1:00 am48 °FClear.6 mph87%29.68 "Hg10 mi
12:00 am52 °FClear.8 mph77%29.68 "Hg10 mi
11:00 pm
Fri, Sep 20
52 °FClear.5 mph82%29.68 "Hg10 mi
10:00 pm52 °FClear.6 mph82%29.68 "Hg10 mi
9:00 pm54 °FClear.15 mph82%29.68 "Hg10 mi
8:00 pm55 °FClear.17 mph77%29.68 "Hg10 mi
7:00 pm57 °FSunny.13 mph72%29.68 "Hg10 mi
6:00 pm57 °FSunny.9 mph72%29.68 "Hg10 mi
5:00 pm61 °FSunny.15 mph68%29.65 "Hg10 mi
4:00 pm63 °FSunny.7 mph64%29.68 "Hg10 mi
2:49 pm63 °FSunny.10 mph64%29.68 "Hg10 mi
2:00 pm59 °FPartly sunny.13 mph72%29.68 "HgN/A
1:00 pm61 °FPassing clouds.8 mph68%29.68 "HgN/A
11:50 am59 °FPassing clouds.9 mph72%29.68 "HgN/A
11:00 am57 °FScattered clouds.7 mph77%29.68 "HgN/A
10:00 am57 °FPassing clouds.3 mph82%29.68 "HgN/A
9:00 am57 °FPartly sunny.3 mph82%29.65 "HgN/A
8:00 am59 °FMostly cloudy.6 mph72%29.65 "HgN/A
7:00 am55 °FMore clouds than sun.6 mph77%29.65 "HgN/A
Weather by CustomWeather, © 2019

See weather overview